OBJECT Z, 57189

Orbit data source: Space-Track

You're viewing an Uncataloged Satellite

Recently launched and/or uncataloged satellites may have evolving metadata. Metadata may include but not limited to: Owner, Maufacturer, Bus, Motor, and Mission.

OBJECT Z, 57189 is a satellite in SSO that was launched on Tue, 27 Jun 2023 UTC via a SOYUZ-2-1B launch vehicle from the Vostochny Cosmodrome (VOSTO). Unknown objects in Earth's orbit typically refer to objects detected orbiting the Earth but have not yet been identified or cataloged. These objects could be anything from previously untracked satellites, spent rocket stages, debris from satellite collisions, or even natural meteoroids temporarily captured by Earth's gravity.

Loading next visibility...
Identifier
57189, 2023-091Z
Orbit
SSO
Country
Flag of TBDTBD
Related business
Flag of RUOOO VIZARD (RU)
Manufacturer
Sputniks
Mission
Operational Commercial Com/Met
Bus & Motor
CUBESAT 3U, Unknown motor
Mass
2.98 kg wet, 2.98 kg dry
Launch date (UTC)
2023-06-27 (3 years ago)
Launch vehicle
SOYUZ-2-1B
Launch site
Vostochny Cosmodrome (VOSTO)
Object type
Unknown
Shape & HBR
Box, 0.1 m
Radar Cross Section
0.035 m², Small (<0.1 m²)

Expand to show TLE details & history
Last TLE update: 6 hours ago

TLE from 6 hours ago
0 OBJECT Z
1 57189U 23091Z   26104.58833838  .00008382  00000-0  25655-3 0  9991
2 57189  97.5138 172.8864 0005972 299.4899  60.5747 15.34076079154937
Epoch: 2026-04-14T14:07Z
TLE epoch observation values (Epoch: 2026-04-14T14:07:12.436Z)
Latitude
-0.00003°
Longitude
118.32216°
Altitude
464.766 km
Speed
7.635 km/s
True Right ascension
11h 31m 32s
True Declination
0° 00' 00"
Sunlit
Object was in full shadow at epoch
Visualization orbit readout
Latitude
Unknown
Longitude
Unknown
Altitude
Unknown
Speed
Unknown
Apparent Right ascension
Unknown
Apparent Declination
Unknown
Sunlit
N/A
Visualization observer readout
Local Sidereal Time
02:21:23
Azimuth
Unknown
Elevation
Unknown
Doppler factor
Unknown
Orbital elements
Apogee altitude
464.702 km
Perigee altitude
456.534 km
Semi-major axis
6,838.755 km
Eccentricity
0.0006
Inclination
97.5138°
RAAN
172.8864°
Arg. of periapsis
299.4899°
True anomaly
60.63433°
Mean anomaly
60.5747°
Eccentric anomaly
60.60451°
Mean motion
3.83776 °/min
Orbital period
93.8 mins
BSTAR
0.00025655
Loading maneuver chart data...
Computing Atmospheric mass density...
Loading historical data...
Loading historical data...
Loading historical data...
Loading historical data...
Loading historical data...
Loading historical data...
Loading historical data...

Documentation

Showing up to 5 results
|